GEFSMW_500_meanwind_000.txt.gz
Wind_Speed
25 29 32 33 36 38 38 37 35 34 36 37 39 40 41 42 42 41 41 42 43 42 41 40 40 41 41 41 42 43 43 44 45 46 48 46 42 38 37 37 32 33 35
27 29 32 39 40 36 36 36 36 34 35 36 37 37 37 38 39 39 40 39 39 40 40 41 41 42 41 40 41 42 42 42 42 43 44 43 40 37 39 41 37 35 36
27 29 37 41 36 32 33 33 33 33 35 37 37 36 35 34 34 35 35 35 35 35 36 38 40 41 41 41 42 42 43 43 42 43 45 43 39 39 39 40 37 37 37
29 34 37 36 34 35 38 38 38 36 35 36 37 37 37 37 37 36 36 37 37 37 36 37 39 40 42 44 44 44 45 45 44 45 45 45 42 40 37 35 38 38 30
29 32 32 31 32 36 38 40 44 44 42 40 39 39 40 40 40 40 39 38 38 39 39 40 41 43 45 45 45 46 47 47 46 46 44 42 41 37 34 35 37 33 28
33 34 35 34 31 31 31 32 36 39 41 43 43 42 42 42 42 41 40 40 40 40 40 40 41 43 44 44 45 47 48 47 46 47 47 44 38 34 33 32 32 25 26
35 37 33 30 28 29 31 32 34 36 38 41 43 44 44 44 45 44 43 42 41 41 40 41 42 42 43 43 42 43 44 44 46 47 45 42 40 35 30 30 30 30 29
30 31 32 33 33 34 35 35 34 33 34 37 39 41 43 44 44 45 46 45 44 43 43 42 43 42 42 41 41 41 42 44 48 48 45 40 37 31 27 28 30 34 35
28 32 34 34 34 36 38 38 35 35 35 36 37 39 40 42 43 44 45 45 45 45 45 44 42 42 41 40 41 39 35 36 39 42 40 34 29 23 22 25 28 30 34
30 31 31 31 32 34 35 36 35 35 36 37 37 37 38 39 39 40 41 42 41 41 42 42 42 42 41 40 37 31 29 29 28 26 26 28 25 28 26 25 26 29 31
32 33 34 34 34 34 37 37 37 39 39 38 37 37 37 36 37 37 37 38 39 39 40 41 42 42 38 32 27 25 24 22 20 20 21 22 22 27 30 30 32 34 32
39 39 39 39 37 35 36 37 36 38 40 39 37 38 37 35 33 33 34 34 33 34 37 37 37 35 32 30 26 19 20 21 20 23 24 25 27 31 32 30 28 26 23
43 45 44 43 44 42 39 39 39 36 36 37 37 38 37 35 31 30 30 30 30 30 32 33 32 31 27 28 23 21 21 20 18 19 16 16 19 27 26 24 20 17 13
47 49 47 46 48 48 45 41 40 39 35 34 35 36 36 35 31 29 29 29 28 24 24 25 25 22 18 20 22 23 22 21 23 22 17 15 19 18 18 17 15 14 16
50 51 50 50 49 50 49 46 44 41 38 33 32 33 34 35 31 28 28 26 21 18 18 20 17 17 18 16 16 21 23 23 22 18 15 14 15 12 11 14 15 16 18
50 52 53 53 53 52 49 47 48 44 40 37 32 30 33 35 31 27 26 22 18 16 13 15 12 11 12 14 15 17 16 18 18 15 14 14 14 12 12 13 15 16 17
62 65 63 58 57 55 52 50 49 44 41 38 35 31 33 35 32 27 25 24 20 14 11 14 13 12 10 7 8 11 16 17 17 16 16 15 13 14 13 13 14 15 15
67 71 68 62 57 56 58 55 50 45 41 39 37 31 31 32 32 28 24 24 21 18 13 13 14 15 13 10 10 12 14 17 18 18 15 15 15 16 15 14 15 14 12
72 73 72 69 66 64 66 66 61 51 42 40 38 32 32 30 31 28 24 23 22 20 15 16 16 17 17 14 12 13 15 15 16 17 17 15 14 13 13 13 12 11 11
73 74 76 73 71 71 70 68 68 60 50 44 40 37 34 31 31 29 26 23 22 21 18 18 19 21 23 21 15 11 10 10 12 12 11 10 10 10 10 10 10 10 9
79 80 77 75 77 77 75 74 68 62 54 50 46 41 39 35 30 28 28 26 21 19 18 18 20 20 22 20 18 15 13 11 10 11 12 13 11 10 10 10 11 11 11
79 77 72 69 71 74 74 72 66 62 60 54 47 40 38 34 27 28 29 28 21 19 17 15 16 15 13 15 18 20 15 9 8 11 14 15 13 11 10 11 12 11 10
77 66 58 59 63 65 62 61 60 62 58 55 52 46 38 35 31 33 31 30 23 18 15 12 11 9 7 8 12 15 16 12 11 11 12 12 14 13 11 11 11 10 9
56 56 58 60 65 64 58 52 50 60 59 54 50 46 45 35 34 36 34 30 24 20 18 14 12 12 10 10 12 13 15 14 13 11 12 13 14 13 11 10 10 9 9
53 50 52 58 63 61 56 47 38 51 58 56 54 47 41 38 35 35 35 32 26 23 23 19 16 14 13 12 13 14 15 15 15 15 13 11 11 11 10 9 9 10 9
50 52 53 53 54 54 52 45 37 37 50 57 51 50 50 43 38 38 36 35 30 26 25 22 20 17 15 14 15 14 15 16 17 15 13 13 14 13 11 9 10 11 10

GEFSMW_500_meanwind_006.txt.gz
Wind_Speed
30 32 31 29 27 26 27 28 29 29 26 26 26 27 28 29 30 32 34 35 37 37 37 36 35 36 37 38 40 42 43 44 44 43 40 38 37 35 34 33 33 33 33
32 32 29 27 27 28 30 31 31 29 28 28 29 29 30 31 33 34 35 35 35 35 36 35 34 34 35 35 36 38 39 41 41 41 39 36 35 35 35 35 35 34 34
35 33 29 27 28 32 34 32 30 29 29 28 28 29 30 31 32 33 34 36 37 37 38 38 37 37 37 35 34 34 35 37 38 38 37 36 35 37 36 36 37 37 36
35 32 29 28 30 32 31 29 29 30 31 30 29 28 28 29 30 31 32 34 37 39 40 40 40 39 39 37 36 35 35 35 36 36 37 38 37 36 35 36 36 36 35
28 26 27 28 29 29 28 28 28 29 27 24 22 22 24 26 29 31 33 34 36 37 39 41 42 42 41 39 38 37 36 35 35 36 37 39 39 38 37 34 33 34 34
25 26 27 26 26 27 27 27 26 23 20 18 18 21 23 25 28 30 32 35 36 37 37 39 41 42 42 42 40 39 38 36 36 36 37 38 39 38 38 35 32 32 32
27 26 23 23 25 27 26 24 22 21 20 22 24 25 27 28 29 30 33 35 36 36 37 38 39 40 40 41 42 42 41 38 38 38 38 38 38 38 37 36 35 33 32
22 21 21 23 25 25 23 22 22 23 24 26 28 30 31 32 32 33 34 36 37 37 37 37 38 39 39 40 41 42 42 41 40 39 38 38 38 38 37 37 35 33 31
20 21 22 25 26 26 26 26 27 28 29 30 32 34 35 34 34 34 34 36 37 38 38 37 36 36 37 37 38 39 40 41 41 39 39 39 38 37 36 35 32 29 26
24 26 27 29 30 32 32 32 33 33 32 33 34 36 38 38 37 36 36 35 37 39 40 38 35 34 34 33 33 34 35 37 38 38 39 38 36 35 34 32 29 26 24
32 33 35 37 38 39 40 40 40 38 35 34 35 38 40 42 40 39 38 37 38 40 40 38 34 33 32 31 30 30 31 33 34 35 34 33 32 32 31 28 27 26 25
39 40 43 44 46 47 48 49 49 48 44 40 40 41 41 42 43 41 39 38 38 39 40 37 34 31 29 28 27 27 28 29 30 28 27 25 25 25 26 27 27 27 26
44 46 48 49 51 52 53 54 55 55 53 50 46 44 43 42 42 41 39 38 38 38 38 37 35 32 28 25 24 23 23 24 23 23 22 23 25 25 26 27 28 27 25
47 49 52 53 54 55 57 58 58 59 60 58 54 49 45 42 41 41 40 40 39 38 37 35 34 32 29 25 23 21 19 19 19 21 22 24 26 27 28 28 28 26 23
52 54 56 59 60 60 60 61 61 61 61 61 59 55 50 45 44 44 44 43 41 40 37 34 33 31 28 24 21 19 17 17 19 20 22 24 25 25 26 25 25 24 21
57 59 60 61 60 59 58 58 58 59 61 62 61 59 55 51 50 49 48 46 44 41 38 33 32 29 26 22 19 17 15 17 20 21 21 23 23 22 19 17 17 17 17
61 62 61 60 62 65 67 69 69 68 69 69 68 65 62 59 56 52 48 46 45 42 39 33 30 28 25 22 18 17 15 16 19 21 22 20 19 18 17 16 17 17 18
62 65 70 74 77 79 79 79 78 77 76 75 73 70 66 62 57 52 47 46 45 42 39 34 30 28 25 22 20 18 17 16 17 19 19 18 17 16 16 17 17 17 16
78 82 85 87 87 87 86 85 84 83 81 79 76 72 68 62 55 50 47 46 45 42 39 34 30 28 26 23 20 19 19 19 18 17 17 17 17 17 17 16 16 15 13
83 86 87 89 89 90 90 88 85 82 79 75 71 66 62 56 51 47 46 47 46 43 40 36 31 29 27 24 22 21 21 19 18 17 17 17 18 17 17 17 16 14 13
88 88 87 85 81 78 76 75 72 69 65 61 56 51 48 46 44 44 45 46 45 44 42 39 33 30 28 26 23 22 21 18 16 15 15 16 18 18 17 16 15 15 14
79 74 70 64 58 55 54 52 49 47 46 43 40 39 40 40 40 41 42 45 47 45 43 41 36 32 29 27 24 22 19 18 16 14 13 15 17 18 16 15 14 15 15
55 52 49 45 41 39 39 39 39 39 37 35 34 35 38 41 42 43 44 46 50 47 42 41 37 32 29 27 23 19 18 19 18 15 14 15 17 16 14 14 14 15 15
44 43 42 39 37 36 35 36 37 38 37 35 35 37 39 42 43 45 45 47 52 51 43 41 38 33 29 26 21 17 17 20 19 17 16 16 16 15 13 14 14 14 15
44 43 43 42 41 41 41 40 41 41 39 38 37 39 40 40 40 40 41 47 54 54 47 42 37 32 28 25 22 19 20 22 21 19 16 14 14 14 15 15 13 13 12
48 49 51 52 52 51 50 48 47 46 44 42 39 38 37 37 35 32 34 45 53 56 48 42 37 33 31 28 24 22 22 23 22 19 16 14 13 13 13 12 12 12 13

GEFSMW_500_meanwind_012.txt.gz
Wind_Speed
33 33 34 35 33 33 34 33 32 31 31 31 29 27 24 22 21 20 19 18 18 19 21 23 26 29 32 35 37 38 38 38 38 38 37 36 36 35 35 34 35 35 34
32 34 35 35 36 36 36 34 33 31 30 29 26 23 19 17 16 15 13 12 13 14 16 18 21 24 28 32 35 38 39 40 40 40 39 37 35 34 33 33 33 33 34
32 34 36 38 38 38 37 35 33 32 30 27 23 19 15 13 12 12 12 13 13 14 16 18 20 22 25 28 32 36 38 40 41 42 41 39 37 35 34 33 32 32 32
34 37 38 40 40 39 36 34 34 33 30 26 23 19 16 15 15 16 17 17 17 17 18 20 21 23 26 29 31 34 37 38 40 42 42 41 39 37 35 33 32 32 33
38 39 39 39 38 37 36 35 35 34 30 27 24 22 20 21 21 22 22 22 21 19 19 21 22 24 26 29 31 33 35 37 38 40 42 42 41 38 36 34 33 33 34
35 36 36 35 35 34 34 35 35 33 30 28 27 26 25 26 27 27 27 26 23 21 21 22 24 25 27 30 32 32 32 34 36 38 40 41 41 40 38 36 35 34 34
28 31 32 33 32 32 34 34 34 32 31 30 30 30 29 29 30 30 29 27 26 24 23 24 25 27 28 30 32 32 32 32 32 33 35 38 39 39 39 37 35 35 34
27 30 32 32 33 33 34 35 35 35 34 34 33 33 33 32 31 31 30 29 28 26 25 25 26 27 28 29 32 33 32 31 30 30 31 33 36 38 38 37 36 35 35
30 32 33 35 36 36 37 38 39 39 39 39 38 37 36 35 34 33 33 32 31 29 27 26 27 27 27 29 31 33 33 31 29 28 28 30 32 35 37 36 36 35 35
36 37 38 39 40 42 43 44 45 46 46 46 45 43 42 40 39 38 37 36 35 32 30 28 27 27 27 28 30 32 33 31 28 27 26 27 29 32 34 35 36 36 36
41 42 43 44 46 47 48 49 50 51 51 51 51 50 48 46 44 43 41 40 38 35 32 30 28 28 28 28 30 32 33 32 29 27 26 26 28 30 32 34 35 36 37
43 45 47 49 50 51 52 53 54 55 56 56 56 56 55 52 50 48 45 43 41 38 34 32 31 31 30 30 31 32 33 32 30 28 27 26 26 28 30 32 33 34 34
44 47 49 50 52 53 54 55 56 58 60 61 62 61 61 59 56 54 52 48 44 40 37 35 33 33 33 33 33 34 33 33 31 29 27 26 24 25 26 28 28 29 31
46 48 50 52 54 56 58 60 61 62 64 66 67 67 67 67 64 62 59 54 48 43 40 38 37 37 36 36 35 35 35 33 30 28 27 24 22 21 21 23 23 24 25
51 52 54 56 59 62 65 67 69 70 72 74 76 76 76 75 71 66 61 58 53 48 44 42 41 41 40 39 37 36 35 33 30 27 25 22 19 18 18 19 20 23 25
62 65 66 67 69 70 72 74 76 77 76 78 79 78 75 74 73 69 65 62 58 54 50 47 46 44 43 42 40 37 36 33 30 26 23 20 19 17 18 19 20 23 27
72 76 78 80 81 82 82 84 85 85 86 86 87 87 86 84 83 81 78 74 68 62 57 54 51 49 46 44 41 37 35 33 30 26 23 20 19 18 18 19 21 23 25
79 80 81 81 80 78 77 77 78 79 82 84 87 89 90 89 86 84 82 78 73 67 62 56 52 49 47 44 40 38 36 33 30 27 24 21 20 19 19 20 21 23 25
75 70 65 60 55 52 50 49 49 50 52 55 59 62 66 69 69 69 70 69 67 65 62 58 53 49 47 44 40 39 37 34 31 29 25 23 21 20 20 20 21 22 23
52 45 40 38 37 38 39 40 40 40 40 41 42 42 42 43 44 47 51 54 57 58 56 54 51 48 45 43 41 39 38 35 32 30 27 24 22 21 20 20 21 21 21
35 35 36 39 41 42 43 43 44 44 44 44 43 41 38 36 34 34 36 41 46 50 52 52 50 48 45 44 43 41 38 36 33 31 29 25 23 21 21 21 22 22 21
37 40 42 43 44 45 46 46 47 47 48 48 46 43 39 34 30 28 29 31 35 41 47 51 53 52 49 46 45 42 38 36 34 31 28 25 23 22 22 23 23 23 23
43 45 46 46 47 48 49 49 49 50 50 50 48 45 42 37 32 27 26 27 28 31 36 45 53 56 52 49 48 45 40 37 34 31 28 24 22 22 24 24 24 24 23
46 49 49 49 50 51 52 53 52 51 51 51 48 45 42 39 35 30 26 24 24 25 28 33 45 55 53 49 47 46 42 36 32 30 27 24 22 22 24 25 25 24 24
50 51 52 52 52 52 53 53 52 51 51 48 46 45 43 40 37 32 28 25 24 24 26 29 37 47 47 45 43 42 39 34 30 28 26 24 22 22 23 22 22 22 22
53 54 54 54 53 52 51 49 49 48 47 44 41 40 41 40 38 34 30 27 26 26 27 30 33 38 40 39 39 38 37 33 30 28 27 25 24 23 23 22 21 21 20

GEFSMW_500_meanwind_018.txt.gz
Wind_Speed
46 49 51 50 47 44 40 38 37 37 37 35 35 35 33 31 30 30 29 28 26 24 21 19 17 16 15 15 15 16 17 19 22 24 25 28 29 31 31 31 30 28 26
43 46 48 47 43 42 39 38 37 36 36 36 36 35 33 31 30 29 27 26 23 20 18 17 16 15 15 16 16 16 17 20 22 24 25 26 28 31 32 32 31 29 28
40 42 42 37 34 32 31 34 35 36 36 36 36 34 32 31 29 27 25 23 21 19 18 19 19 19 19 18 18 17 18 19 22 25 27 27 26 29 31 32 32 31 30
38 40 34 27 26 23 22 26 31 34 36 36 35 33 31 29 28 25 23 22 21 21 21 22 22 22 22 21 20 20 20 21 22 26 28 29 29 28 28 30 31 31 30
40 39 37 33 30 33 33 30 32 34 35 35 34 32 30 28 27 25 24 23 23 23 24 25 25 24 24 24 23 23 23 23 24 25 27 28 29 29 28 26 29 30 30
36 36 37 37 35 37 36 37 36 35 34 34 32 31 29 28 27 27 27 27 27 27 27 28 28 28 27 27 26 25 26 26 26 27 27 27 28 29 29 26 26 28 29
36 36 36 36 37 38 39 39 38 36 35 35 35 34 31 30 29 30 30 31 32 32 31 31 31 31 31 29 29 28 28 28 28 28 27 27 27 28 28 26 24 26 27
39 40 40 41 41 42 43 43 42 41 41 40 40 40 38 36 35 35 34 35 36 36 36 35 34 34 34 33 32 31 31 30 29 29 28 26 26 27 27 26 24 24 25
42 43 44 46 47 48 48 49 49 49 48 48 47 47 46 45 44 43 42 41 40 40 40 39 39 39 38 38 36 34 33 32 31 30 29 27 26 27 26 25 24 23 23
45 46 48 50 51 53 54 54 55 56 56 56 55 55 54 53 53 52 51 50 48 47 45 43 43 42 41 41 39 37 35 34 33 31 30 29 27 26 26 25 24 23 22
47 49 52 54 55 56 58 59 59 60 61 61 61 61 61 61 61 60 59 58 56 54 52 49 47 44 43 43 41 39 38 36 35 33 32 30 28 27 26 24 23 22 22
51 53 55 57 58 60 61 62 63 64 64 65 65 66 66 66 66 65 65 64 63 61 57 54 52 50 47 45 44 42 40 39 37 35 33 31 29 28 26 24 23 22 21
57 60 61 62 63 65 66 67 68 69 69 70 70 70 70 69 69 68 67 67 66 64 62 59 56 54 52 50 47 45 42 41 39 37 35 32 29 28 26 24 22 21 20
63 65 67 68 69 70 72 73 74 75 76 76 76 76 75 75 74 73 71 70 69 68 66 64 61 57 54 53 51 49 46 44 42 39 36 33 30 28 26 24 22 20 19
69 70 71 73 76 77 78 77 76 74 73 73 75 77 80 81 80 80 79 78 77 75 72 70 67 64 62 58 56 55 52 49 45 42 37 33 30 28 26 24 21 19 18
72 74 76 77 76 73 68 62 57 53 51 49 48 50 54 60 66 72 76 79 80 81 80 77 75 71 68 65 61 58 55 52 48 43 38 34 31 28 26 23 21 19 18
76 78 75 69 60 50 43 39 37 36 36 35 34 34 34 34 35 39 46 54 62 70 75 78 78 75 72 68 63 59 55 51 48 45 40 36 32 29 26 24 21 19 18
76 69 59 48 41 37 37 38 40 41 42 41 41 41 39 36 34 33 32 33 35 41 49 57 64 68 69 68 66 60 55 51 48 45 42 37 34 31 27 24 21 20 18
62 52 44 39 38 39 40 42 43 45 45 45 45 44 43 41 39 36 34 34 34 34 34 37 43 50 56 61 62 61 57 51 48 43 40 37 35 32 28 25 22 20 19
48 42 39 39 40 43 45 47 48 49 49 49 48 47 46 45 43 42 40 38 37 35 34 32 32 35 42 48 53 55 54 50 48 45 41 38 36 34 31 27 25 22 20
41 40 42 44 47 49 51 52 52 52 52 51 50 49 48 47 46 45 43 40 39 37 35 33 31 30 33 41 47 50 50 49 47 44 42 40 38 36 33 30 27 24 21
42 44 47 50 52 54 56 55 55 54 53 52 51 50 48 48 47 45 43 41 39 38 36 34 32 31 30 34 43 50 52 49 47 46 44 42 39 37 35 32 29 26 23
47 50 53 55 57 58 58 58 57 55 54 52 50 49 47 45 44 42 41 40 38 37 35 34 31 30 30 33 39 47 54 51 47 47 45 43 41 39 36 34 31 27 24
54 56 58 59 58 57 57 56 55 53 51 48 46 44 43 41 39 38 38 37 36 35 33 32 30 29 28 31 36 43 53 52 46 46 45 44 42 40 37 35 31 27 24
57 57 57 55 54 53 52 50 49 47 45 44 42 39 37 35 34 33 33 32 31 31 30 29 28 26 26 27 31 40 50 53 46 45 45 43 40 37 35 33 29 26 24
57 55 54 53 51 49 46 44 43 42 40 37 35 32 31 30 29 28 28 27 27 27 27 26 24 22 22 24 28 37 47 52 46 43 45 42 38 36 33 30 28 26 24

GEFSMW_500_meanwind_024.txt.gz
Wind_Speed
43 44 46 47 49 49 49 46 43 34 21 17 21 24 24 23 22 22 23 24 24 23 23 23 21 19 18 16 16 15 15 14 13 12 11 10 9 10 11 13 15 17 19
43 43 43 45 45 44 42 40 36 28 20 19 18 20 21 21 23 23 24 24 24 24 23 22 20 19 18 17 16 17 17 16 15 14 12 12 11 11 12 13 15 17 19
37 39 40 41 41 41 41 38 33 28 22 21 20 21 21 22 23 23 23 23 23 23 23 22 21 20 20 19 19 19 19 19 17 16 14 13 13 14 14 14 15 17 19
35 37 38 39 40 40 39 37 33 29 26 22 20 21 20 21 22 22 22 23 23 23 23 23 23 23 23 22 22 21 21 21 21 19 17 15 14 14 17 17 16 17 19
33 36 38 40 41 42 40 38 35 31 29 28 26 24 24 23 23 23 24 24 25 25 25 26 26 26 26 26 25 24 23 24 24 22 21 19 17 15 16 19 20 18 19
34 37 40 42 44 45 44 41 39 36 35 34 33 32 31 30 29 29 29 29 28 28 28 29 30 30 30 29 28 27 26 26 27 26 24 23 21 19 18 19 21 21 21
33 38 41 44 46 47 47 46 45 43 42 40 39 39 38 38 37 37 36 35 34 33 33 33 33 33 33 34 33 31 30 30 29 29 28 26 25 24 22 20 20 21 22
39 42 45 47 48 49 49 48 47 47 46 46 46 45 44 44 44 43 43 43 42 41 39 38 36 36 37 37 38 36 35 34 33 32 31 29 28 27 25 24 22 21 23
45 48 50 52 53 54 54 53 52 51 50 50 51 51 51 50 50 49 49 48 48 47 47 46 44 42 41 42 42 41 40 38 37 35 34 33 31 30 28 26 24 22 22
50 53 56 58 59 61 61 61 60 59 57 55 55 55 55 55 55 54 54 53 53 53 52 53 52 50 48 47 46 45 44 42 41 39 37 36 34 32 30 29 26 24 23
53 55 58 60 63 65 66 68 68 68 66 65 63 62 61 60 60 59 59 58 58 57 57 57 58 57 56 54 52 50 48 47 45 43 41 38 36 34 32 30 28 26 24
56 58 60 62 65 68 70 72 74 75 75 74 72 70 68 66 64 63 63 63 63 63 62 62 62 62 61 60 58 56 53 51 49 47 44 41 39 36 34 32 30 29 26
58 61 63 66 69 71 73 75 76 76 76 74 71 66 61 59 58 58 59 61 63 65 67 67 66 66 66 64 63 60 58 56 53 51 48 45 42 39 36 34 32 30 28
62 65 68 70 71 71 71 71 69 67 64 59 54 48 43 41 39 40 43 46 52 58 64 68 70 71 70 69 66 64 61 59 56 54 51 48 45 42 39 36 34 32 30
65 67 68 68 67 65 63 60 57 54 51 48 43 39 36 34 32 32 32 33 35 40 47 55 64 70 73 73 71 68 64 61 58 55 52 50 47 45 42 38 36 33 31
64 63 62 61 60 58 56 54 52 50 47 45 43 41 40 38 37 35 34 33 32 32 33 37 44 53 62 70 73 72 68 64 60 56 53 51 49 46 44 40 37 35 32
59 58 57 57 56 55 54 53 52 51 49 48 46 46 45 44 43 41 39 37 36 36 35 33 34 36 41 51 62 69 70 67 63 58 55 52 49 46 44 42 39 36 33
55 56 56 57 57 57 56 55 54 53 52 52 52 51 51 49 47 46 44 41 40 38 37 35 33 32 32 34 41 53 62 65 64 60 57 53 50 48 45 43 40 37 35
55 56 57 58 58 57 57 56 54 53 53 52 53 53 53 53 51 49 47 45 42 40 39 37 35 33 31 30 30 35 46 55 60 61 58 55 52 49 45 43 41 38 35
53 55 56 57 57 57 56 54 52 51 50 50 50 50 52 52 51 49 47 46 44 42 40 39 38 35 33 30 28 27 32 42 50 56 58 56 53 50 47 43 41 38 36
53 55 56 56 56 56 54 52 50 49 47 46 45 45 46 48 48 48 46 45 44 42 40 39 38 37 35 32 29 26 26 31 40 47 53 53 51 49 47 44 41 39 36
53 55 56 57 57 56 54 51 48 45 43 41 39 38 39 40 41 42 42 42 42 40 39 39 39 38 37 34 31 28 25 27 33 42 48 51 49 48 46 45 42 39 36
53 55 56 57 56 55 54 50 47 44 41 38 35 33 32 32 34 35 36 37 37 37 37 37 37 37 36 34 32 30 26 26 30 38 46 49 49 47 45 45 43 40 36
52 54 56 56 56 55 53 51 47 44 40 35 30 27 25 25 25 27 29 30 31 32 32 33 34 35 34 33 32 31 27 27 29 36 47 49 48 47 46 44 43 40 37
51 53 55 56 56 55 53 51 48 44 40 34 28 24 21 19 19 19 22 24 26 27 28 29 31 32 32 31 31 30 28 27 29 36 49 50 48 48 46 45 43 40 36
50 52 54 56 56 55 54 52 48 45 40 34 28 23 20 15 12 11 12 16 19 22 24 25 27 29 29 29 29 28 27 27 31 36 48 51 49 47 45 44 42 39 35